Date,TemperatureHighF,TemperatureAvgF,TemperatureLowF,DewpointHighF,DewpointAvgF,DewpointLowF,HumidityHigh,HumidityAvg,HumidityLow,PressureMaxIn,PressureMinIn,WindSpeedMaxMPH,WindSpeedAvgMPH,GustSpeedMaxMPH,PrecipitationSumIn
2013-1-1,19.8,13.1,6.6,13.8,7.3,3.1,85,77,64,30.25,30.13,10,1,10,0.00
2013-1-2,29.5,19.6,7.7,23.8,14.4,3.6,88,80,63,30.20,30.04,17,5,17,0.00
2013-1-3,28.4,23.1,13.0,26.6,19.0,9.4,93,84,70,30.28,30.08,15,5,15,0.00
2013-1-4,32.8,18.7,11.7,25.1,14.9,8.8,90,85,72,30.26,30.15,20,6,20,0.00
2013-1-5,35.6,29.6,19.6,34.3,27.5,17.7,97,92,82,30.19,29.89,21,7,21,0.04
2013-1-6,35.1,23.0,16.9,33.5,19.4,13.7,94,86,80,30.30,29.89,19,4,19,0.00
2013-1-7,39.1,29.1,16.9,30.6,24.4,14.2,91,83,68,30.28,30.04,24,6,24,0.00
2013-1-8,43.4,34.9,26.4,35.9,30.4,24.0,92,84,73,30.09,29.95,20,5,20,0.00
2013-1-9,44.7,36.2,28.7,36.0,30.1,26.0,91,79,60,30.45,30.12,20,4,20,0.00
2013-1-10,44.6,35.0,26.4,39.7,30.9,24.1,98,86,55,30.45,29.78,21,4,21,0.64
2013-1-11,50.5,45.3,40.2,50.2,45.1,39.7,100,99,96,29.78,29.59,19,6,19,0.29
2013-1-12,34.0,29.2,23.1,28.7,24.2,20.2,93,81,77,29.98,29.87,17,4,17,0.00
2013-1-13,23.2,17.9,11.2,21.5,13.2,7.1,93,81,73,30.25,29.86,14,3,14,0.00
2013-1-14,25.7,16.0,8.2,14.6,10.0,5.3,89,78,58,30.45,30.25,8,1,8,0.01
2013-1-15,29.4,18.9,9.6,18.7,13.6,7.3,94,80,60,30.41,30.10,11,1,11,0.02
2013-1-16,35.7,26.9,14.6,33.1,21.5,11.4,92,80,66,30.10,29.82,23,5,23,0.00
2013-1-17,35.2,26.9,20.7,33.1,20.1,13.1,92,76,52,30.37,30.05,13,1,13,0.00
2013-1-18,46.2,34.3,20.3,36.0,27.8,16.6,89,77,66,30.39,29.86,28,9,28,0.00
2013-1-19,49.7,40.1,22.4,38.7,32.3,12.0,84,74,48,30.00,29.69,37,9,37,0.01
2013-1-20,22.3,15.9,11.0,12.1,6.6,4.4,78,66,56,30.31,30.00,25,4,25,0.00
2013-1-21,13.7,8.2,4.0,8.8,-1.2,-6.0,83,65,50,30.30,30.16,19,6,19,0.00
2013-1-22,13.6,7.4,-1.5,2.1,-1.9,-7.2,78,65,55,30.41,30.29,16,3,16,0.00
2013-1-23,25.4,16.8,10.5,15.3,8.9,1.8,86,71,62,30.39,30.10,19,4,19,0.00
2013-1-24,21.8,13.5,4.1,11.0,4.1,-2.5,81,66,54,30.64,30.30,18,4,18,0.00
2013-1-25,35.1,23.8,17.5,21.8,15.9,8.1,91,72,56,30.30,29.94,21,5,21,0.00
2013-1-26,28.6,20.4,9.5,18.1,12.0,5.5,84,70,51,30.38,30.19,14,2,14,0.00
2013-1-27,40.0,30.9,25.7,39.7,26.7,16.6,100,84,67,30.30,29.79,21,6,21,0.33
2013-1-28,49.4,42.9,39.6,49.3,42.4,39.1,100,98,92,29.90,29.66,17,4,17,0.02
2013-1-29,60.9,52.7,38.4,59.5,52.1,38.1,100,98,92,29.66,29.35,22,5,22,0.70
2013-1-30,38.3,31.7,17.1,38.0,30.8,12.3,99,96,79,29.67,29.19,20,4,20,0.32
2013-1-31,17.9,10.5,1.9,14.2,5.6,-3.6,85,80,75,30.24,29.67,24,7,24,0.00
2013-2-1,17.1,5.8,-1.3,14.7,0.3,-6.2,90,78,68,30.39,30.13,16,5,16,0.00
2013-2-2,24.2,17.5,10.0,23.0,13.6,5.4,95,85,70,30.12,29.98,14,2,14,0.00
2013-2-3,23.5,20.0,13.1,19.8,15.6,9.6,95,83,70,30.05,29.93,16,4,16,0.00
2013-2-4,26.5,21.8,12.2,23.1,17.9,8.2,92,85,80,29.97,29.79,17,3,17,0.00
2013-2-5,32.7,25.4,12.5,29.3,21.8,8.3,99,86,80,30.08,29.78,17,3,17,0.00
2013-2-6,40.4,31.7,19.1,34.6,27.2,15.8,92,84,76,30.17,29.99,19,4,19,0.01
2013-2-7,35.7,34.0,29.5,34.9,33.2,28.7,99,97,89,30.02,29.83,14,2,14,0.42
2013-2-8,29.6,24.8,18.2,28.7,21.9,16.4,97,89,79,30.36,30.01,12,1,12,0.08
2013-2-9,33.2,28.3,18.4,31.0,26.0,17.0,96,91,86,30.36,29.99,19,3,20,0.00
2013-2-10,46.3,39.4,30.0,45.7,37.6,28.7,99,93,71,30.00,29.37,30,10,30,0.31
2013-2-11,39.7,32.3,27.2,34.0,26.3,22.1,82,78,75,30.03,29.46,28,10,28,0.00
2013-2-12,33.9,28.4,25.8,27.0,23.8,21.3,93,83,73,30.08,29.86,15,3,15,0.00
2013-2-13,43.4,34.3,25.2,35.2,30.4,23.8,100,86,69,29.86,29.66,13,3,13,0.00
2013-2-14,42.1,36.7,30.5,34.6,31.3,27.4,93,81,60,29.97,29.58,19,5,19,0.00
2013-2-15,32.0,26.0,17.3,29.0,17.4,9.6,93,70,51,30.19,29.96,16,3,16,0.00
2013-2-16,25.9,17.6,11.8,14.5,10.0,7.2,84,72,58,30.20,30.11,13,2,13,0.00
2013-2-17,33.7,23.4,11.0,26.4,16.0,7.1,86,74,58,30.18,29.86,21,6,21,0.00
2013-2-18,54.1,37.7,21.1,44.5,32.7,18.0,97,83,66,29.86,29.42,21,7,21,0.29
2013-2-19,20.9,14.1,9.5,18.5,9.5,4.8,96,82,76,30.12,29.64,20,5,20,0.00
2013-2-20,12.3,11.6,10.9,9.2,8.6,7.9,88,87,87,30.37,30.36,1,0,1,0.01
2013-2-21,28.5,20.9,10.5,26.3,18.2,7.9,100,89,86,30.37,29.90,27,6,27,0.00
2013-2-22,33.4,28.0,24.8,31.7,25.9,21.9,96,92,85,29.90,29.76,18,6,18,0.01
2013-2-23,30.2,25.0,17.5,22.9,20.3,14.2,89,82,72,29.96,29.89,16,4,16,0.00
2013-2-24,35.6,23.7,8.5,25.6,18.6,6.0,93,82,58,30.10,29.95,8,1,8,0.01
2013-2-25,39.6,30.9,19.9,31.2,26.1,17.9,93,83,69,30.12,29.89,14,2,14,0.00
2013-2-26,35.7,33.4,31.2,32.0,30.5,29.1,98,89,77,29.89,29.51,25,7,25,0.02
2013-2-27,35.0,32.0,29.5,33.0,30.7,28.5,98,95,90,29.75,29.55,11,1,11,0.20
2013-2-28,37.4,33.4,28.6,33.4,30.7,24.7,96,90,82,30.06,29.74,12,1,12,0.02
2013-3-1,28.5,25.9,23.6,25.1,21.7,18.9,89,84,75,30.22,30.05,17,5,17,0.00
2013-3-2,29.7,20.5,12.5,19.4,14.3,9.0,88,77,61,30.22,30.16,9,1,9,0.00
2013-3-3,32.4,19.3,6.2,17.1,10.9,3.4,92,72,42,30.16,30.05,7,1,7,0.00
2013-3-4,31.2,25.7,19.6,26.2,20.2,11.8,92,79,68,30.08,29.91,21,4,21,0.00
2013-3-5,34.8,30.7,26.1,33.2,29.5,24.8,96,95,93,30.05,29.78,16,1,16,0.23
2013-3-6,33.5,28.4,23.9,27.5,24.9,21.8,94,87,77,30.30,30.05,14,2,14,0.12
2013-3-7,36.6,28.7,20.8,26.5,23.7,17.8,90,82,65,30.38,30.29,10,1,10,0.14
2013-3-8,37.2,29.1,18.6,31.3,25.0,16.3,93,85,73,30.42,30.21,20,5,20,0.01
2013-3-9,41.4,37.0,33.4,38.3,34.1,29.3,94,89,83,30.22,29.73,23,8,23,0.20
2013-3-10,42.3,40.6,38.8,42.0,40.1,37.5,100,98,87,29.74,29.50,19,4,19,0.74
2013-3-11,39.7,34.5,31.2,39.7,33.7,27.9,100,97,88,29.79,29.52,17,3,17,0.05
2013-3-12,36.1,29.9,25.6,31.7,25.4,20.2,94,83,70,30.04,29.80,21,6,21,0.00
2013-3-13,35.1,28.1,22.3,21.5,19.2,15.4,86,70,45,30.31,30.04,15,3,15,0.00
2013-3-14,36.7,29.6,22.6,33.2,26.1,17.6,95,87,77,30.31,30.02,19,4,19,0.00
2013-3-15,32.1,31.2,30.3,30.9,30.0,28.5,96,95,93,30.03,29.90,6,0,6,0.00
2013-3-16,37.1,32.3,30.7,30.8,27.2,25.0,92,81,75,30.10,29.92,13,2,13,0.00
2013-3-17,34.4,30.5,24.7,28.7,24.5,17.6,86,78,70,30.17,29.91,18,5,18,0.00
2013-3-18,34.7,29.6,20.7,33.7,26.2,14.7,100,87,74,29.91,29.60,24,6,24,0.06
2013-3-19,31.6,23.4,15.9,20.3,15.6,9.9,79,72,59,30.11,29.81,22,8,24,0.00
2013-3-20,25.6,19.4,12.0,19.1,10.4,4.7,77,68,57,30.14,30.04,24,6,24,0.00
2013-3-21,32.8,22.3,11.6,18.5,13.1,7.4,83,69,49,30.08,29.99,12,1,12,0.00
2013-3-22,39.7,28.2,16.8,24.5,19.6,14.6,93,72,48,30.04,29.98,10,1,10,0.00
2013-3-23,42.2,33.7,24.7,29.5,24.3,20.4,90,70,47,30.09,29.96,12,2,12,0.00
2013-3-24,34.9,32.0,29.8,31.1,28.8,26.1,96,88,80,30.00,29.67,19,4,19,0.01
2013-3-25,37.2,32.4,27.9,30.9,26.6,22.8,84,79,72,30.08,29.75,16,2,16,0.02
2013-3-26,40.4,35.4,31.4,28.5,26.7,24.5,81,71,56,30.24,30.08,12,1,12,0.00
2013-3-27,46.1,37.4,31.6,30.9,26.4,20.0,89,66,41,30.30,30.24,10,1,10,0.00
2013-3-28,50.7,38.8,26.6,32.7,28.2,23.3,92,68,42,30.32,30.22,12,1,12,0.00
2013-3-29,56.9,44.2,32.0,35.8,31.4,26.4,85,62,39,30.27,30.16,9,1,9,0.00
2013-3-30,56.9,46.0,34.3,44.4,36.7,27.2,92,70,53,30.17,29.79,23,6,23,0.00
2013-3-31,56.6,44.9,34.6,44.6,37.4,26.1,95,76,49,29.89,29.71,24,4,24,0.00
2013-4-1,40.9,33.4,27.8,26.6,21.6,17.1,79,63,42,30.18,29.89,19,2,19,0.00
2013-4-2,44.8,33.1,21.8,24.6,20.1,14.2,88,62,32,30.29,30.18,19,2,19,0.00
2013-4-3,47.0,35.2,22.2,24.4,21.1,16.0,90,60,33,30.41,30.25,12,2,13,0.00
2013-4-4,59.5,44.4,29.1,38.5,29.6,21.6,80,58,37,30.25,29.93,14,3,15,0.00
2013-4-5,54.1,43.3,32.3,34.5,29.0,20.1,87,60,33,30.17,29.98,23,2,23,0.00
2013-4-6,69.1,51.7,36.9,51.5,36.6,21.5,88,58,35,30.03,29.53,32,10,35,0.19
2013-4-7,61.6,50.3,39.7,46.6,42.0,36.7,92,75,51,29.89,29.61,13,3,14,0.00
2013-4-8,71.3,53.8,42.5,59.1,49.0,38.2,99,85,57,29.83,29.44,29,5,29,0.67
2013-4-9,64.3,50.0,41.3,59.4,47.5,39.9,96,91,82,29.87,29.72,21,6,21,0.10
2013-4-10,42.2,40.3,35.7,41.4,39.3,34.3,100,96,94,30.07,29.61,31,7,31,0.94
2013-4-11,48.5,42.4,37.8,47.8,41.5,35.4,100,97,91,29.70,29.51,28,6,28,0.09
2013-4-12,43.7,38.7,36.7,40.8,35.0,31.9,95,87,77,29.83,29.52,21,5,21,0.00
2013-4-13,46.7,39.6,34.3,35.9,32.4,28.7,90,76,58,29.92,29.82,19,5,19,0.00
2013-4-14,74.3,55.0,39.2,55.5,44.1,34.7,86,69,43,29.92,29.48,34,10,34,0.01
2013-4-15,65.2,52.8,41.6,56.3,48.1,38.6,100,85,48,29.94,29.51,29,4,29,0.38
2013-4-16,53.7,45.4,35.3,43.3,38.4,32.9,96,77,59,30.20,29.90,14,1,14,0.01
2013-4-17,51.9,44.8,42.0,51.8,41.6,35.3,100,89,72,30.21,29.66,24,6,24,1.76
2013-4-18,62.3,51.5,38.2,61.6,50.1,33.2,100,95,82,29.72,29.32,29,7,29,1.36
2013-4-19,39.4,36.9,33.6,33.7,31.4,29.5,87,80,73,29.93,29.46,29,9,29,0.00
2013-4-20,46.4,37.8,29.6,32.2,28.7,24.0,94,72,45,30.33,29.93,12,2,12,0.00
2013-4-21,55.8,45.1,34.9,42.0,35.3,29.1,81,69,56,30.43,30.21,31,10,31,0.00
2013-4-22,67.3,55.0,41.1,46.0,41.0,35.7,82,61,39,30.23,29.93,21,7,21,0.00
2013-4-23,55.8,44.0,39.0,49.8,42.4,37.0,97,94,72,29.97,29.85,18,1,18,0.36
2013-4-24,52.0,43.5,36.0,37.2,32.7,28.4,93,68,42,30.05,29.92,16,4,16,0.00
2013-4-25,52.7,44.3,36.5,38.4,31.5,22.9,91,63,34,30.25,30.01,23,5,23,0.03
2013-4-26,66.7,54.2,40.7,50.6,42.1,30.7,78,64,49,30.25,30.14,30,9,30,0.00
2013-4-27,65.9,56.5,43.5,51.0,47.5,41.9,96,74,51,30.21,29.91,14,3,18,0.00
2013-4-28,70.0,59.7,49.9,54.5,51.1,47.7,95,75,51,29.91,29.73,10,1,10,0.00
2013-4-29,76.7,64.3,49.3,60.3,55.1,47.7,96,74,48,29.82,29.62,24,9,24,0.00
2013-4-30,87.3,73.8,61.9,63.2,57.1,51.2,92,60,31,29.80,29.63,28,11,28,0.00
2013-5-1,84.9,74.6,61.8,58.8,54.7,48.5,77,52,29,30.03,29.80,14,6,19,0.00
2013-5-2,62.4,52.8,42.3,51.3,44.7,39.0,91,74,58,30.17,30.01,20,4,20,0.05
2013-5-3,52.4,45.6,39.1,51.8,44.6,37.9,98,96,92,30.09,29.84,18,5,18,0.62
2013-5-4,72.7,60.1,51.4,59.0,54.8,50.2,97,84,60,29.96,29.84,21,3,21,0.00
2013-5-5,75.5,62.1,48.8,56.0,49.9,44.2,99,69,34,29.96,29.87,16,2,16,0.01
2013-5-6,75.5,63.4,51.2,53.2,46.0,37.1,88,57,27,29.98,29.89,13,1,13,0.00
2013-5-7,79.5,67.0,54.0,49.4,43.4,36.5,77,46,24,29.98,29.88,9,0,9,0.00
2013-5-8,81.3,67.9,51.3,55.3,48.9,42.3,82,54,27,29.95,29.86,11,1,11,0.00
2013-5-9,72.3,64.2,61.3,62.2,59.3,53.8,98,85,66,29.88,29.69,22,4,22,0.18
2013-5-10,62.5,50.3,46.6,61.9,47.9,44.8,98,91,84,29.94,29.69,16,2,16,0.00
2013-5-11,60.1,50.7,43.3,53.0,38.5,27.9,99,68,33,30.04,29.81,14,4,23,0.01
2013-5-12,57.4,47.0,36.3,34.0,29.8,25.0,76,53,32,30.10,30.02,26,2,26,0.00
2013-5-13,62.4,53.9,40.2,40.8,36.7,30.6,70,53,41,30.07,29.87,13,2,13,0.00
2013-5-14,93.8,74.5,56.3,63.3,53.0,40.6,71,50,21,29.87,29.53,19,6,19,0.00
2013-5-15,83.5,75.1,62.4,58.8,50.7,40.7,60,43,23,29.75,29.55,18,2,18,0.00
2013-5-16,84.2,71.4,54.3,53.0,48.1,41.9,78,47,23,29.85,29.75,17,2,17,0.00
2013-5-17,79.3,69.2,61.2,61.1,56.7,49.0,79,65,49,29.92,29.82,16,2,16,0.02
2013-5-18,82.7,71.1,58.9,66.5,60.3,53.3,90,70,50,29.93,29.80,14,3,18,0.00
2013-5-19,90.8,75.2,62.5,68.9,64.4,58.8,94,71,45,29.84,29.59,38,5,38,0.04
2013-5-20,84.3,73.4,63.9,68.1,62.4,58.8,92,71,43,29.67,29.51,27,8,27,0.14
2013-5-21,80.7,70.8,62.5,66.7,60.5,56.5,94,72,48,29.59,29.54,24,6,24,0.00
2013-5-22,73.8,65.0,60.2,62.1,57.4,53.0,93,78,52,29.68,29.52,18,3,18,0.02
2013-5-23,65.0,57.5,48.1,56.8,50.9,43.8,97,80,53,30.21,29.68,17,2,17,0.10
2013-5-24,66.8,53.1,36.3,44.7,39.2,33.8,92,63,33,30.39,30.21,12,2,12,0.00
2013-5-25,56.3,51.1,46.3,46.0,42.6,36.5,91,73,53,30.33,30.20,12,2,12,0.18
2013-5-26,58.7,53.6,46.0,56.0,48.6,38.8,95,83,68,30.21,30.02,18,2,18,0.33
2013-5-27,69.3,62.0,56.3,65.2,60.1,55.2,98,93,86,30.02,29.74,13,3,13,0.03
2013-5-28,79.5,69.2,60.5,73.5,66.5,59.7,99,91,81,29.75,29.58,23,5,23,0.06
2013-5-29,85.0,73.5,62.9,73.3,66.9,60.2,96,81,58,29.83,29.62,22,5,22,0.08
2013-5-30,84.7,73.4,63.0,71.8,66.9,61.2,97,81,59,29.78,29.59,31,9,32,0.44
2013-5-31,74.0,68.1,62.2,69.3,65.3,61.6,99,91,72,29.73,29.57,34,5,34,0.05
2013-6-1,77.5,69.2,63.4,69.6,64.4,58.3,99,86,57,29.66,29.56,18,5,18,0.00
2013-6-2,63.6,58.4,49.3,60.5,51.9,46.1,97,80,64,29.97,29.66,14,1,14,0.00
2013-6-3,71.6,58.8,45.4,51.9,47.7,44.1,98,70,41,30.06,29.94,12,1,12,0.00
2013-6-4,73.3,63.8,52.1,53.2,49.4,39.9,92,62,38,30.08,29.95,14,2,14,0.00
2013-6-5,69.1,61.1,55.9,61.3,55.3,47.5,95,82,61,30.02,29.84,10,1,10,0.32
2013-6-6,67.3,60.0,55.0,61.2,56.3,52.0,98,88,76,29.87,29.79,8,1,8,0.34
2013-6-7,73.5,63.3,55.9,59.2,53.8,48.1,93,72,49,29.89,29.82,9,1,10,0.00
2013-6-8,76.0,65.7,50.3,55.2,50.3,45.7,92,60,38,29.90,29.84,11,1,11,0.00
2013-6-9,82.1,68.8,60.4,64.5,58.1,46.8,95,71,46,29.88,29.68,22,4,22,0.07
2013-6-10,79.5,69.3,57.7,66.9,62.4,57.1,100,80,55,29.79,29.66,10,1,11,0.01
2013-6-11,88.0,75.0,61.1,70.3,64.9,59.4,97,73,47,29.83,29.68,17,1,17,0.00
2013-6-12,92.3,78.1,66.5,75.6,69.7,65.4,97,77,55,29.80,29.47,21,3,21,0.48
2013-6-13,82.0,71.5,60.3,65.8,61.0,58.1,98,72,46,29.93,29.55,9,1,12,0.05
2013-6-14,78.7,68.0,54.2,62.6,57.6,51.2,92,71,49,30.06,29.88,11,1,11,0.00
2013-6-15,83.0,71.8,63.9,71.8,65.7,58.5,95,82,63,29.95,29.73,28,3,28,0.14
2013-6-16,85.3,74.8,67.0,69.7,64.9,59.3,93,73,45,29.84,29.78,16,2,16,0.00
2013-6-17,87.5,76.7,61.9,66.0,60.0,54.6,89,59,35,29.85,29.75,13,1,13,0.00
2013-6-18,78.7,67.9,57.9,62.0,57.1,51.4,83,69,54,29.98,29.80,14,2,14,0.00
2013-6-19,83.3,69.1,51.7,62.5,55.2,46.8,84,63,41,30.05,29.95,9,1,9,0.00
2013-6-20,88.7,76.2,60.2,67.5,61.3,55.0,84,62,41,30.04,29.92,14,2,14,0.00
2013-6-21,80.9,73.5,67.1,71.3,66.7,63.1,97,80,65,30.09,29.84,23,5,23,0.24
2013-6-22,84.2,75.6,66.6,76.6,70.5,64.8,98,85,66,30.04,29.82,20,4,20,0.33
2013-6-23,88.1,74.1,67.6,76.2,69.4,65.9,96,86,65,29.92,29.77,18,3,18,0.03
2013-6-24,82.9,70.6,65.9,74.2,68.1,64.3,99,92,72,29.99,29.78,28,3,28,1.00
2013-6-25,83.5,75.4,66.7,76.8,72.4,66.1,99,91,78,29.86,29.69,17,2,17,0.14
2013-6-26,84.3,76.2,70.8,74.3,71.6,68.3,98,86,69,29.70,29.57,11,2,15,0.15
2013-6-27,89.3,78.7,69.8,75.8,69.9,62.0,99,77,49,29.73,29.63,18,2,18,0.00
2013-6-28,82.0,72.5,65.1,67.4,63.3,60.5,90,74,52,29.67,29.55,12,2,17,0.01
2013-6-29,72.6,66.2,63.1,67.4,63.7,60.3,98,92,70,29.72,29.53,8,1,14,0.57
2013-6-30,78.9,68.8,59.7,66.6,60.6,55.2,95,77,58,29.93,29.72,11,1,11,0.00
2013-7-1,78.3,67.5,55.9,58.9,54.1,50.6,86,65,39,30.00,29.92,16,2,16,0.00
2013-7-2,77.0,66.0,56.3,59.7,54.6,46.7,89,69,39,30.02,29.95,13,1,13,0.00
2013-7-3,75.5,63.5,52.4,64.7,57.3,50.9,96,81,59,30.00,29.94,7,0,7,0.00
2013-7-4,85.3,72.7,58.9,69.0,63.2,58.0,98,75,47,30.00,29.90,12,1,12,0.00
2013-7-5,85.5,75.1,61.9,70.0,64.4,59.2,93,71,50,29.98,29.90,13,2,13,0.00
2013-7-6,86.5,75.8,64.0,71.6,66.6,61.3,93,75,53,29.95,29.85,10,2,12,0.00
2013-7-7,91.5,80.2,69.8,74.6,70.8,67.8,96,75,50,29.90,29.82,13,2,13,0.00
2013-7-8,88.7,80.0,70.5,77.6,73.5,69.5,97,81,66,29.93,29.83,19,4,19,0.59
2013-7-9,86.2,79.3,74.2,79.3,75.3,72.0,97,88,77,29.89,29.76,13,2,13,0.11
2013-7-10,84.5,77.4,64.7,76.8,68.7,60.8,97,76,52,29.92,29.75,13,1,13,0.00
2013-7-11,79.8,70.2,59.3,64.6,60.0,56.0,95,73,45,30.03,29.92,14,1,14,0.00
2013-7-12,82.9,70.9,57.9,64.8,60.2,55.6,93,71,44,30.07,29.98,5,0,6,0.00
2013-7-13,82.8,72.4,60.3,67.1,62.1,55.9,95,72,49,30.06,29.98,12,1,12,0.00
2013-7-14,86.5,76.6,63.9,73.5,68.9,61.3,95,78,63,30.10,30.03,11,1,11,0.00
2013-7-15,91.6,79.9,69.7,77.7,73.1,67.6,94,81,59,30.16,30.09,7,1,9,0.00
2013-7-16,91.8,82.2,73.7,79.7,75.6,72.8,97,82,62,30.19,30.13,10,1,10,0.00
2013-7-17,92.5,83.3,72.6,78.7,75.0,71.3,97,78,57,30.21,30.07,9,1,9,0.00
2013-7-18,92.0,83.8,73.8,78.9,75.2,72.1,98,77,57,30.08,29.84,11,2,11,0.00
2013-7-19,93.3,82.0,69.7,75.7,73.0,67.7,97,76,51,29.84,29.66,19,4,32,0.36
2013-7-20,86.8,75.8,64.0,71.3,67.4,63.4,98,77,52,29.83,29.73,7,0,8,0.01
2013-7-21,83.3,73.8,64.4,74.3,68.3,63.5,98,84,66,29.85,29.75,12,1,12,0.00
2013-7-22,86.8,75.7,64.0,74.0,68.9,63.7,99,81,61,29.80,29.63,14,2,14,0.08
2013-7-23,77.9,69.9,60.1,66.8,62.2,56.6,97,78,54,29.89,29.64,11,1,12,0.01
2013-7-24,75.3,64.8,53.7,58.7,55.9,52.6,97,75,51,30.00,29.89,11,1,11,0.00
2013-7-25,80.8,69.5,56.6,65.3,59.6,52.9,92,72,52,30.02,29.93,9,1,9,0.00
2013-7-26,70.8,65.9,59.9,67.3,62.9,56.8,98,90,75,29.93,29.83,12,3,13,0.19
2013-7-27,63.5,58.7,52.3,57.1,52.4,47.9,95,80,61,29.89,29.82,14,1,14,0.00
2013-7-28,69.8,60.7,52.6,56.6,52.4,48.6,90,75,54,29.97,29.83,12,1,12,0.00
2013-7-29,78.2,65.1,49.1,63.8,56.6,48.0,98,76,54,30.08,29.97,8,1,9,0.00
2013-7-30,67.4,63.7,59.0,66.1,62.1,56.5,99,95,88,30.08,29.97,11,1,12,0.09
2013-7-31,78.8,68.6,64.1,69.2,66.0,63.8,100,92,69,29.98,29.88,8,0,8,0.23
2013-8-1,80.5,69.9,58.8,64.8,60.6,55.6,100,75,45,29.95,29.83,13,1,15,0.01
2013-8-2,84.3,73.8,64.4,71.8,66.2,60.5,92,78,59,29.87,29.76,11,1,11,0.01
2013-8-3,80.5,71.9,58.7,64.3,58.4,53.4,95,66,43,30.01,29.87,9,1,9,0.00
2013-8-4,80.2,67.8,54.4,61.1,56.3,50.6,93,70,39,30.12,30.01,8,0,8,0.00
2013-8-5,73.3,65.6,58.9,67.1,62.1,56.3,99,89,75,30.02,29.78,22,2,22,0.49
2013-8-6,84.7,73.6,66.7,75.8,70.9,65.8,100,92,71,29.81,29.71,11,1,11,0.00
2013-8-7,86.5,76.4,65.8,75.9,70.5,63.1,100,84,58,29.86,29.68,12,1,12,0.00
2013-8-8,80.5,70.6,62.0,67.3,64.2,61.1,98,81,61,29.94,29.86,11,1,11,0.00
2013-8-9,81.8,70.6,58.9,72.2,64.3,56.9,96,81,61,29.98,29.89,11,1,11,0.10
2013-8-10,80.5,68.8,57.7,63.5,59.4,56.5,98,75,48,30.07,29.98,11,1,11,0.00
2013-8-11,83.5,70.3,55.7,68.0,62.0,54.3,99,77,56,30.05,29.93,13,1,13,0.00
2013-8-12,83.7,73.6,64.0,71.7,66.4,59.3,93,79,60,29.95,29.80,10,1,10,0.00
2013-8-13,73.0,63.7,55.3,59.5,53.3,49.3,95,71,46,30.08,29.87,12,1,12,0.00
2013-8-14,75.8,61.4,48.3,58.0,51.8,46.7,96,74,46,30.16,30.06,8,0,8,0.00
2013-8-15,76.9,64.9,55.2,59.5,54.9,50.9,92,72,43,30.10,30.02,8,0,8,0.00
2013-8-16,81.3,67.4,51.7,62.4,56.6,49.8,96,71,44,30.11,30.05,11,0,11,0.00
2013-8-17,82.7,70.3,54.2,61.3,57.3,51.3,93,66,43,30.15,30.06,8,1,8,0.00
2013-8-18,83.9,69.4,54.7,63.5,58.4,52.4,95,71,42,30.13,30.00,9,0,9,0.00
2013-8-19,85.4,72.0,58.5,67.3,63.2,56.8,97,76,50,30.03,29.93,12,1,12,0.00
2013-8-20,87.7,75.4,64.2,70.9,66.6,62.3,96,76,52,30.00,29.92,15,2,15,0.00
2013-8-21,89.7,79.0,68.8,71.4,68.5,65.4,91,72,52,29.97,29.86,16,3,16,0.00
2013-8-22,77.2,71.6,65.5,71.5,68.1,64.3,97,89,78,30.07,29.89,16,1,16,0.29
2013-8-23,83.7,70.7,58.8,68.3,61.0,54.4,100,75,46,30.09,30.01,13,1,13,0.01
2013-8-24,87.2,73.2,60.0,71.6,64.4,53.8,92,75,55,30.15,30.06,12,2,12,0.00
2013-8-25,90.8,78.2,67.1,71.6,68.1,65.0,93,73,47,30.14,30.02,16,3,16,0.00
2013-8-26,93.4,79.4,66.1,75.8,69.9,63.5,92,75,50,30.05,29.89,13,2,13,0.00
2013-8-27,95.9,83.9,73.0,75.4,72.6,70.0,93,71,48,29.90,29.74,16,4,16,0.00
2013-8-28,89.8,80.8,73.5,79.0,73.0,68.1,91,77,70,29.92,29.75,11,1,11,0.00
2013-8-29,89.1,75.8,66.4,74.5,70.4,65.4,99,85,56,29.99,29.87,9,1,9,0.00
2013-8-30,98.0,81.9,70.8,77.9,72.1,69.1,97,76,42,29.88,29.65,15,2,15,0.18
2013-8-31,82.5,74.3,68.4,73.2,70.1,67.2,98,88,70,29.76,29.68,12,1,12,0.00
2013-9-1,90.1,74.9,61.3,75.8,67.6,60.7,99,80,54,29.76,29.63,7,1,9,0.01
2013-9-2,78.9,67.9,56.4,65.1,59.9,53.7,96,77,50,29.92,29.75,6,0,11,0.00
2013-9-3,79.2,64.3,50.4,59.5,55.2,49.3,97,75,47,30.03,29.92,9,0,9,0.00
2013-9-4,86.0,69.1,52.2,64.9,59.1,51.1,97,74,45,30.06,29.97,10,0,10,0.01
2013-9-5,80.2,70.3,62.6,68.1,63.1,52.9,98,79,61,30.13,30.02,11,2,14,0.00
2013-9-6,89.1,73.0,59.1,67.8,60.9,52.5,86,68,46,30.12,29.91,9,1,14,0.00
2013-9-7,92.3,77.6,66.1,71.5,66.8,62.3,90,72,47,29.92,29.77,13,2,13,0.00
2013-9-8,82.5,74.6,69.9,72.1,69.1,67.0,92,84,69,29.91,29.80,14,2,14,0.00
2013-9-9,98.8,82.1,68.1,75.7,71.5,66.9,99,74,40,29.83,29.69,15,2,15,0.00
2013-9-10,96.3,84.4,72.2,70.2,66.0,61.4,76,56,33,29.89,29.77,23,4,23,0.00
2013-9-11,86.7,78.0,69.8,72.2,68.3,64.8,90,73,57,29.95,29.88,14,1,14,0.00
2013-9-12,80.5,69.6,56.5,66.6,57.3,49.4,97,69,37,30.02,29.90,19,1,19,0.00
2013-9-13,70.3,58.3,46.8,50.4,43.6,34.7,90,62,28,30.15,30.02,13,1,13,0.00
2013-9-14,75.7,58.9,41.7,50.5,45.0,39.5,96,64,35,30.12,29.93,12,1,12,0.00
2013-9-15,60.4,57.1,52.4,59.5,53.9,46.8,98,90,66,30.12,29.90,10,0,10,0.70
2013-9-16,69.0,57.9,50.0,55.2,50.3,46.7,98,78,47,30.30,30.12,12,1,12,0.01
2013-9-17,71.4,58.7,45.7,60.2,53.1,43.8,97,83,59,30.26,30.00,14,2,14,0.05
2013-9-18,78.9,69.4,60.9,72.2,64.3,56.3,96,84,72,30.01,29.79,15,3,15,0.08
2013-9-19,78.7,71.9,67.9,70.2,68.9,66.0,96,90,66,29.82,29.70,14,2,14,0.11
2013-9-20,71.1,65.9,55.3,66.7,60.7,52.6,98,84,58,29.80,29.67,14,2,16,0.13
2013-9-21,72.5,59.2,49.1,54.9,50.7,46.6,97,76,47,29.89,29.78,7,0,7,0.00
2013-9-22,72.7,57.7,43.1,52.8,47.9,41.5,97,73,44,30.00,29.89,5,0,8,0.00
2013-9-23,78.3,60.2,46.3,55.1,49.9,44.7,95,72,41,30.03,29.91,8,1,11,0.00
2013-9-24,76.7,61.7,48.6,57.3,51.6,46.1,93,72,45,29.94,29.82,13,1,13,0.00
2013-9-25,81.6,63.4,49.9,57.2,51.4,46.5,95,69,36,29.89,29.82,8,1,8,0.00
2013-9-26,87.7,65.9,49.5,60.6,54.0,48.0,98,70,37,29.97,29.88,7,0,7,0.00
2013-9-27,90.2,68.6,52.8,59.5,53.1,49.8,93,63,28,30.05,29.92,7,0,7,0.00
2013-9-28,85.7,67.3,55.7,67.9,59.4,51.1,94,78,48,29.94,29.78,10,0,10,0.04
2013-9-29,79.5,60.2,47.2,58.2,48.4,41.3,99,71,28,30.01,29.90,7,0,7,0.01
2013-9-30,84.3,62.4,45.1,56.4,48.3,42.2,98,66,29,29.93,29.76,4,0,4,0.00
2013-10-1,90.2,70.7,56.8,67.5,61.3,54.6,99,76,43,29.87,29.77,7,0,7,0.00
2013-10-2,89.0,70.9,56.5,65.0,57.3,44.7,94,67,29,29.99,29.85,12,0,12,0.00
2013-10-3,74.7,68.8,63.8,74.1,67.9,59.7,100,97,84,29.86,29.73,9,0,9,1.23
2013-10-4,74.0,69.5,66.3,73.8,68.7,65.2,100,97,91,29.89,29.78,10,0,10,0.31
2013-10-5,78.0,69.7,57.9,74.6,66.6,48.8,100,90,73,29.81,29.67,7,0,7,0.01
2013-10-6,61.6,49.5,43.7,49.1,43.5,40.9,97,81,55,29.74,29.65,8,0,8,0.00
2013-10-7,71.1,49.9,41.5,50.8,45.6,40.8,99,87,44,30.01,29.73,4,0,4,0.01
2013-10-8,80.1,60.2,43.7,58.3,49.1,43.0,99,72,33,30.10,30.01,5,0,5,0.00
2013-10-9,77.2,59.9,46.6,54.3,48.5,44.8,97,70,35,30.14,30.03,5,0,5,0.00
2013-10-10,79.0,63.7,49.6,61.0,53.6,45.1,92,71,49,30.08,29.94,4,0,4,0.00
2013-10-11,79.6,65.5,53.1,63.0,56.2,51.6,97,74,49,29.96,29.80,18,3,18,0.02
2013-10-12,71.0,62.6,47.5,61.2,52.0,40.4,91,70,40,30.12,29.81,16,3,16,0.01
2013-10-13,65.5,51.2,38.6,46.3,38.6,34.4,97,66,34,30.34,30.13,10,0,10,0.00
2013-10-14,65.5,50.9,36.5,47.9,41.3,34.9,100,72,44,30.34,30.01,15,2,15,0.00
2013-10-15,68.0,56.1,47.0,63.1,50.5,42.4,99,82,63,30.01,29.69,16,4,16,0.28
2013-10-16,52.1,50.0,47.4,47.5,45.8,42.8,95,85,80,29.90,29.78,16,4,16,0.00
2013-10-17,58.6,49.3,43.7,47.6,43.8,38.3,98,83,50,29.88,29.77,13,2,13,0.18
2013-10-18,49.1,45.4,40.2,43.2,40.0,37.3,96,82,70,29.92,29.78,15,2,15,0.00
2013-10-19,53.9,44.4,37.7,40.7,37.6,33.8,93,78,49,29.89,29.73,13,3,20,0.00
2013-10-20,61.4,48.4,32.9,47.9,42.1,31.6,98,80,59,29.80,29.65,13,2,13,0.01
2013-10-21,53.1,42.5,32.9,45.2,32.3,25.3,84,68,45,29.94,29.75,21,3,21,0.00
2013-10-22,37.9,34.0,26.6,37.1,32.3,24.8,98,94,80,29.96,29.87,7,0,7,0.13
2013-10-23,44.4,37.2,30.4,35.6,31.7,28.9,98,81,62,30.00,29.91,13,1,13,0.01
2013-10-24,41.9,36.7,31.0,34.7,28.7,25.2,91,73,56,30.29,30.00,15,2,15,0.00
2013-10-25,52.6,39.6,24.9,35.7,28.4,22.6,93,67,40,30.37,29.99,21,5,21,0.00
2013-10-26,53.7,45.3,35.3,37.7,32.3,28.8,78,61,44,30.05,29.83,22,5,22,0.00
2013-10-27,55.4,41.5,27.9,36.0,31.4,26.6,96,70,42,30.04,29.89,16,2,16,0.00
2013-10-28,58.6,43.3,31.7,45.6,37.0,28.0,89,79,58,30.30,29.99,18,3,18,0.00
2013-10-29,58.2,46.6,36.8,45.1,39.5,33.8,94,77,52,30.30,30.05,14,2,14,0.00
2013-10-30,59.7,53.2,46.8,59.5,52.7,44.0,100,98,88,30.05,29.68,13,2,13,0.81
2013-10-31,62.7,56.2,43.7,62.5,55.5,41.2,100,98,91,29.69,29.23,15,4,18,0.58
2013-11-1,47.9,45.1,42.1,45.3,42.6,40.8,96,91,86,29.71,29.38,15,4,15,0.01
2013-11-2,51.2,41.5,33.8,40.9,36.8,31.4,99,84,61,30.10,29.71,15,2,15,0.00
2013-11-3,52.3,40.6,28.5,41.1,35.2,27.8,98,82,59,30.24,30.09,15,3,15,0.01
2013-11-4,57.7,48.2,41.7,46.5,41.4,37.0,84,77,60,30.15,29.98,21,7,22,0.00
2013-11-5,54.9,52.0,49.7,53.2,49.8,46.3,99,92,83,30.17,29.82,22,5,22,0.10
2013-11-6,56.7,45.0,31.4,56.0,42.1,27.7,99,90,75,30.15,29.69,19,4,21,0.31
2013-11-7,38.7,32.7,28.6,34.7,29.6,25.8,93,88,84,30.23,30.15,14,2,14,0.01
2013-11-8,49.6,39.7,27.6,38.3,32.6,26.1,95,77,55,30.28,29.81,22,4,22,0.00
2013-11-9,58.2,49.2,39.6,43.4,39.6,32.0,82,70,56,30.12,29.78,24,6,24,0.00
2013-11-10,48.4,40.5,30.6,36.1,32.2,27.7,90,73,55,30.32,30.12,13,2,13,0.00
2013-11-11,46.1,36.9,22.4,37.8,31.2,17.6,96,80,68,30.53,30.03,16,4,16,0.03
2013-11-12,31.7,23.5,17.9,22.9,17.4,13.5,90,77,63,30.72,30.53,12,2,12,0.02
2013-11-13,42.1,30.3,18.6,24.4,20.2,15.0,88,68,43,30.59,30.10,24,8,24,0.01
2013-11-14,51.2,41.2,31.9,32.1,27.3,21.2,72,58,46,30.10,29.86,23,8,23,0.00
2013-11-15,54.2,43.6,34.3,38.5,32.8,25.9,85,66,50,29.91,29.83,14,5,17,0.00
2013-11-16,58.2,51.3,39.4,56.2,49.3,35.4,97,93,85,29.83,29.45,27,9,30,0.03
2013-11-17,67.9,53.9,41.3,64.3,51.1,37.7,98,90,71,29.74,29.05,30,7,30,0.31
2013-11-18,43.2,37.3,28.3,38.1,30.8,25.0,89,78,59,30.23,29.74,22,5,22,0.00
2013-11-19,40.7,32.5,23.3,31.7,27.9,21.7,95,83,67,30.32,30.19,15,4,15,0.00
2013-11-20,40.3,36.8,33.2,38.2,33.4,29.2,95,87,78,30.20,30.00,21,8,21,0.32
2013-11-21,45.8,42.2,39.4,43.3,40.6,38.0,100,94,89,30.19,30.03,7,0,7,0.00
2013-11-22,40.8,33.4,23.3,39.7,30.0,20.3,96,87,75,30.46,30.19,16,2,16,0.02
2013-11-23,24.8,20.0,10.6,20.4,12.9,6.1,92,74,54,30.72,30.44,18,4,21,0.00
2013-11-24,28.2,18.6,8.6,14.5,9.8,5.4,88,70,43,30.72,30.34,15,4,15,0.00
2013-11-25,32.8,28.5,21.5,28.7,23.0,14.5,93,80,64,30.34,30.05,22,7,22,0.00
2013-11-26,32.5,26.9,13.6,28.0,21.2,6.9,92,79,62,30.20,30.02,13,3,16,0.00
2013-11-27,27.2,19.1,11.1,17.7,11.0,5.2,78,71,57,30.28,30.19,14,2,14,0.00
2013-11-28,33.4,25.1,17.2,21.8,17.5,14.2,89,73,60,30.48,30.12,14,2,14,0.00
2013-11-29,34.1,24.6,13.7,24.8,18.7,11.8,93,79,60,30.59,30.32,15,4,15,0.00
2013-11-30,49.6,36.9,27.5,36.5,30.3,23.9,93,78,58,30.33,29.99,15,4,15,0.00
2013-12-1,44.4,35.0,28.7,33.8,30.1,27.1,95,83,65,30.09,29.98,10,1,10,0.00
2013-12-2,42.3,36.9,32.4,36.5,33.1,30.3,100,87,70,29.92,29.64,19,4,19,0.06
2013-12-3,46.2,41.5,37.3,46.2,41.2,36.0,100,99,95,29.65,29.58,11,4,12,0.01
2013-12-4,51.6,45.1,30.3,51.6,45.0,28.7,100,99,94,29.70,29.42,21,5,21,0.01
2013-12-5,30.2,22.2,18.0,28.7,16.8,12.2,94,80,71,30.27,29.70,20,6,24,0.00
2013-12-6,19.3,14.6,9.6,12.6,8.4,4.7,85,76,63,30.58,30.26,12,3,13,0.00
2013-12-7,18.7,10.8,5.1,7.6,4.4,1.3,89,76,54,30.73,30.58,8,1,10,0.00
2013-12-8,22.8,19.2,11.7,21.6,15.6,7.3,96,86,69,30.61,29.95,13,3,15,0.00
2013-12-9,22.3,12.0,-2.5,21.3,8.2,-6.2,96,85,71,30.24,29.94,20,4,20,0.00
2013-12-10,20.0,12.1,-4.3,15.6,6.4,-8.0,89,78,70,30.29,30.00,24,6,24,0.00
2013-12-11,18.4,9.9,-3.6,15.4,5.1,-8.5,93,81,63,30.58,30.25,16,2,16,0.00
2013-12-12,19.8,10.2,-4.6,12.7,5.0,-8.7,92,79,69,30.56,30.20,16,4,16,0.00
2013-12-13,28.9,21.5,10.0,27.7,17.9,7.7,96,86,77,30.20,30.03,11,3,14,0.00
2013-12-14,29.7,25.8,17.4,28.8,24.0,15.3,98,92,86,30.06,29.93,15,3,15,0.01
2013-12-15,19.4,12.7,9.1,15.9,7.6,3.7,89,80,75,30.12,29.96,16,3,16,0.00
2013-12-16,18.1,14.0,8.2,16.6,10.2,2.5,94,85,65,30.12,29.99,8,2,10,0.00
2013-12-17,35.2,25.8,18.1,28.7,21.6,14.5,96,85,64,30.12,29.95,24,6,24,0.00
2013-12-18,35.7,24.8,12.2,27.5,19.3,9.8,92,80,57,30.13,29.78,26,4,26,0.00
2013-12-19,37.2,33.2,26.1,33.5,30.8,24.4,98,91,84,29.86,29.74,18,4,18,0.21
2013-12-20,33.8,29.6,26.3,33.3,28.9,25.6,98,97,96,29.81,29.70,17,3,17,0.09
2013-12-21,30.4,27.9,26.1,29.9,27.2,25.4,100,97,95,29.84,29.59,16,2,16,0.00
2013-12-22,30.6,27.0,20.0,30.1,25.4,17.8,98,93,88,30.14,29.59,9,1,13,0.06
2013-12-23,19.9,3.7,-4.3,17.7,-0.2,-8.1,100,84,78,30.50,30.14,12,2,17,0.00
2013-12-24,18.9,1.5,-9.7,15.1,-2.2,-13.0,98,84,77,30.59,30.31,18,2,18,0.00
2013-12-25,26.0,23.3,18.9,24.2,20.5,14.0,95,89,81,30.31,30.11,13,5,16,0.00
2013-12-26,33.3,25.1,14.3,30.0,21.8,10.6,94,87,80,30.24,30.11,18,3,18,0.01
2013-12-27,38.4,29.4,15.9,33.4,26.5,14.2,100,89,80,30.25,30.06,21,4,21,0.16
2013-12-28,43.4,36.0,28.0,35.9,32.1,26.1,96,86,73,30.07,29.75,19,6,19,0.18
2013-12-29,36.9,24.7,2.0,33.5,20.7,-3.6,99,84,77,30.24,29.73,14,5,19,0.00
2013-12-30,6.7,1.3,-5.3,2.6,-4.3,-10.4,88,77,63,30.34,30.20,9,1,9,0.00
2013-12-31,11.1,5.8,-2.6,8.0,2.7,-5.6,89,87,84,30.36,30.21,14,2,14,0.00
2014-1-1,14.8,11.2,7.9,12.4,8.3,4.8,91,88,84,30.27,30.19,17,6,17,0.00
2014-1-2,15.6,9.2,-2.0,10.2,5.4,-5.0,96,84,76,30.44,30.19,17,2,17,0.00